Theta_e
304 304 303 304 304 304 304 305 305 305 305 296 293 294 290 289 286 297 301 302 299 293 286 288 286 283 287 291 290 291 289 289 291 290 291 288 291 288 285 282 282 284 287 286 288 290 287 289 288 290 292 293 295 297 300 302 300 301 296 299 297 295 286 285 285 287 289 294 295 295 295 297 294 295 295 295 291 293 291 289 288 286 285 284 283 281 286
303 303 303 304 304 304 304 304 305 305 304 298 295 291 288 289 288 291 300 302 298 289 280 281 283 284 288 288 287 290 288 288 289 288 289 287 287 286 285 286 290 284 287 288 287 290 285 288 288 287 289 289 298 299 299 302 299 298 296 294 298 290 286 287 283 282 284 286 290 291 292 294 293 292 295 296 296 295 292 287 286 287 287 287 284 279 286
302 303 303 303 303 303 303 304 304 304 305 303 295 287 289 289 291 291 294 298 294 284 287 286 284 284 283 283 283 285 285 288 289 289 288 288 287 288 285 286 289 288 289 285 289 289 289 286 289 287 287 291 293 298 299 301 300 301 302 299 301 293 288 286 282 279 278 277 279 281 286 289 293 295 295 295 295 293 290 287 285 284 287 287 285 284 290
302 302 303 303 303 303 303 304 304 304 304 304 296 291 287 284 278 286 287 291 290 288 289 287 286 284 281 280 283 284 282 286 288 289 288 289 289 287 288 287 289 287 287 283 282 286 290 286 285 287 285 286 289 294 298 300 300 300 299 299 299 289 289 289 288 286 285 287 287 291 294 291 288 291 293 293 294 295 293 289 287 284 285 284 287 288 290
302 302 302 303 303 303 303 303 303 303 303 304 295 290 288 287 281 281 278 284 283 283 285 284 285 283 285 278 282 280 282 285 286 290 285 289 288 287 287 287 284 284 283 282 283 284 283 287 287 286 287 288 290 294 294 299 300 297 297 299 296 287 286 288 289 288 290 290 287 293 295 291 292 292 292 293 292 292 291 289 287 291 287 282 286 289 288
301 301 302 302 302 302 303 303 303 303 303 303 295 286 286 277 283 286 286 278 275 277 279 284 283 286 286 282 285 282 283 283 281 286 288 289 289 285 285 286 285 286 283 283 280 284 282 283 283 287 287 288 289 289 293 294 296 297 297 299 295 287 287 289 289 288 291 291 291 294 294 294 294 294 293 292 293 292 289 290 293 292 287 285 290 290 289
301 301 301 301 301 301 302 302 302 303 302 302 291 284 285 285 285 286 288 281 282 281 282 285 283 283 283 283 283 282 282 281 283 283 283 285 285 284 278 283 285 286 285 283 281 284 278 278 284 284 283 286 285 285 289 292 295 296 295 297 293 291 286 289 289 288 289 290 291 293 293 292 293 293 293 294 293 292 293 293 294 293 290 292 292 291 291
301 300 300 300 300 300 301 301 302 302 302 296 290 286 282 281 281 281 286 284 283 284 284 285 284 280 286 280 280 281 282 281 283 285 282 279 282 286 282 282 284 285 285 283 281 283 284 283 281 283 284 283 286 285 287 286 291 294 293 294 295 293 286 291 288 286 286 289 291 290 291 292 290 292 293 294 294 294 294 294 294 294 293 293 293 291 291
300 301 300 300 300 300 300 301 301 301 302 289 287 284 288 287 287 287 282 279 282 283 283 282 281 280 280 280 281 282 282 282 284 283 286 282 281 284 283 283 284 285 285 284 283 285 286 285 287 290 290 286 289 289 286 292 287 291 290 291 290 293 286 290 287 284 285 288 288 288 289 289 289 290 291 292 292 290 292 291 294 292 290 292 291 289 290
299 299 300 300 299 299 300 300 301 300 301 288 284 282 287 287 288 288 282 278 285 281 282 281 280 276 280 281 280 281 281 283 283 281 284 286 286 286 285 284 285 282 283 284 286 287 286 287 287 292 293 294 293 294 294 295 292 288 290 292 289 289 286 286 285 283 284 288 288 287 287 286 285 286 291 293 293 294 295 295 296 294 295 290 288 289 296
299 299 299 299 300 300 300 300 300 300 295 287 284 285 286 285 285 285 283 276 277 280 280 280 279 280 281 283 281 283 282 282 283 280 277 285 285 287 287 285 283 280 282 287 290 292 291 291 290 289 292 292 294 294 295 295 296 294 290 288 288 289 286 285 287 283 285 287 287 287 284 278 280 293 296 296 293 293 291 292 294 295 296 294 296 296 298
298 298 299 298 299 299 300 300 300 300 298 291 288 287 288 288 285 283 277 273 276 280 279 276 279 280 280 282 282 281 281 281 282 284 280 282 284 286 287 286 285 278 285 290 291 291 292 293 292 291 291 290 291 293 293 293 294 295 296 291 285 285 286 285 286 284 284 285 286 282 277 279 292 295 297 298 297 296 294 295 296 296 297 297 296 296 297
297 297 298 298 298 299 299 299 300 299 300 292 289 285 288 288 285 282 279 274 271 275 275 273 279 281 281 281 280 280 282 282 283 284 284 284 282 284 286 285 284 286 290 290 290 289 285 280 282 284 283 285 286 288 289 291 292 294 294 294 290 285 285 285 285 285 286 283 283 277 278 288 294 295 297 298 298 297 295 293 295 297 297 297 296 297 298
296 296 297 297 298 298 298 299 299 299 299 297 290 289 289 287 282 280 279 274 276 277 278 277 277 278 279 279 280 280 281 281 281 282 282 284 284 283 284 288 290 292 291 290 287 284 277 276 273 275 275 277 280 281 283 289 291 291 291 292 294 290 286 285 283 286 281 283 283 283 288 286 288 289 291 294 292 293 292 287 292 297 298 298 297 297 298
296 296 296 296 296 297 298 298 298 298 299 298 291 289 288 287 285 282 283 279 274 276 278 274 275 279 280 279 280 278 278 277 279 278 281 284 283 286 286 288 288 289 290 288 284 283 277 274 276 275 278 279 274 274 282 278 284 290 291 291 292 292 286 286 283 282 285 283 281 283 282 280 285 291 293 299 299 299 298 294 291 297 298 299 298 297 298
296 296 296 296 296 296 296 297 297 297 298 298 290 287 288 289 287 286 281 278 275 271 275 281 281 279 278 278 280 278 277 276 276 276 276 277 280 283 285 287 288 289 288 286 283 280 278 276 271 272 270 273 277 275 270 277 279 282 287 289 290 290 290 287 284 282 284 282 280 280 279 283 291 292 294 297 298 296 294 289 287 295 297 299 299 298 298
295 295 295 295 296 296 296 296 297 296 297 297 287 286 285 289 285 282 281 280 277 276 282 282 282 281 280 276 277 276 278 276 279 274 272 274 278 281 283 285 287 289 286 284 280 281 279 276 275 272 272 274 273 270 274 274 273 278 284 286 286 285 285 285 282 280 280 280 280 279 283 284 288 290 293 296 296 298 293 282 284 296 297 298 298 298 298
294 294 295 295 295 296 296 295 296 297 296 297 291 285 286 289 287 285 282 280 275 276 279 283 280 277 277 276 276 278 280 278 276 277 276 276 277 278 279 281 280 284 287 280 276 277 276 275 275 273 274 276 278 277 272 273 273 276 280 281 281 282 283 284 279 280 280 280 279 283 285 288 291 289 291 295 298 295 285 281 289 295 298 298 299 298 299
294 294 294 294 295 295 295 295 295 295 296 296 291 287 285 288 288 285 281 281 277 272 279 283 283 280 281 282 279 280 280 280 279 273 272 275 277 281 283 281 286 279 284 279 278 275 275 275 277 276 274 273 277 273 276 278 275 278 282 280 280 282 283 283 283 279 278 279 279 279 285 291 293 289 292 296 293 284 284 295 296 293 295 297 298 298 298
293 293 294 294 294 294 294 295 295 294 295 296 293 283 284 289 289 288 282 275 278 276 280 280 282 280 282 281 278 277 278 278 278 277 273 272 279 284 280 276 278 281 278 279 275 277 276 275 277 277 277 276 275 280 278 278 281 279 277 283 281 281 281 279 279 282 283 282 279 279 277 287 295 291 289 294 289 290 297 297 292 292 291 295 294 297 298
292 292 293 293 293 294 294 294 294 294 295 295 294 286 284 285 288 288 286 282 277 276 279 284 283 282 282 282 282 282 280 278 278 277 278 279 281 280 271 273 275 278 275 278 274 275 275 274 276 275 279 278 277 278 273 275 278 281 284 283 281 287 280 280 282 285 278 279 278 279 287 292 294 294 289 292 296 292 294 293 293 286 287 292 292 294 296
292 292 292 292 293 293 293 293 294 294 294 295 293 285 283 285 288 289 288 287 283 280 281 284 285 283 285 285 285 284 284 284 284 284 280 276 280 280 280 280 279 280 281 282 278 277 278 279 279 276 278 278 279 279 278 277 275 276 282 284 279 287 283 286 281 287 284 282 285 290 292 289 294 297 297 296 298 291 290 296 296 296 292 289 294 294 294
291 292 291 292 292 292 293 293 293 293 293 294 293 285 284 286 286 289 289 285 287 287 286 283 284 284 286 287 287 286 285 286 286 285 284 280 276 279 279 280 280 283 283 284 282 282 280 280 279 280 279 279 278 277 279 280 277 279 277 284 284 289 290 287 287 284 288 289 290 288 290 291 293 293 292 293 298 298 294 290 290 290 295 292 294 293 293
291 291 291 291 292 292 292 292 293 293 293 293 293 286 283 284 285 285 286 286 283 280 283 285 283 279 281 281 283 287 288 287 288 287 287 286 278 278 281 283 284 282 283 285 287 283 282 282 282 282 279 279 279 279 276 276 279 282 280 281 281 285 286 287 285 285 287 282 289 290 291 293 294 295 292 289 289 292 294 291 290 288 288 288 289 291 292
290 290 291 291 291 292 291 292 293 293 293 293 291 292 290 286 287 287 283 278 280 279 273 276 280 284 286 286 286 285 286 288 289 287 287 287 285 280 278 282 285 283 282 285 286 285 285 281 283 283 280 282 283 279 283 279 279 283 280 282 282 283 288 287 287 287 286 285 289 292 294 294 295 294 291 292 295 295 292 291 289 286 285 286 289 288 290
290 290 290 290 291 291 291 291 292 292 293 293 293 284 283 283 286 288 284 284 282 279 274 274 279 286 285 284 282 285 288 287 286 286 286 286 287 286 285 285 283 287 286 287 286 283 282 282 282 283 281 281 285 282 281 283 283 285 283 282 286 284 289 285 287 286 288 290 291 290 291 291 293 294 294 296 294 289 288 286 286 285 287 288 286 286 290
289 290 290 290 290 291 291 292 292 292 292 293 291 286 284 282 287 286 283 283 279 276 278 275 279 281 282 281 285 286 287 287 286 285 285 286 286 286 285 284 283 283 283 283 284 285 284 283 282 280 283 283 285 284 285 283 283 282 282 284 284 285 285 285 288 285 285 286 288 290 286 287 292 294 296 294 287 289 290 287 287 288 288 287 287 289 287
289 289 289 290 290 290 291 291 292 292 292 293 291 287 285 284 285 287 287 286 282 275 275 274 274 276 281 280 284 285 286 286 286 285 285 285 285 285 284 283 283 282 281 281 278 280 282 281 281 286 286 286 284 282 286 286 284 283 283 285 287 285 286 288 285 285 285 290 292 293 293 293 293 291 291 293 294 295 295 293 292 292 291 289 288 289 289
289 289 290 289 290 290 290 291 291 292 292 292 283 283 282 284 286 289 289 287 285 281 279 280 282 280 273 276 283 281 285 286 285 285 285 285 285 284 284 283 282 283 282 282 282 281 281 282 285 284 284 288 285 282 284 280 280 280 283 287 288 290 291 290 290 291 291 293 294 294 293 291 293 292 288 293 294 295 295 295 294 293 292 290 288 289 291
289 289 289 290 290 290 290 290 291 291 292 283 281 281 278 279 284 285 289 287 285 283 277 275 273 276 283 281 279 281 282 284 283 283 283 283 283 284 284 283 283 284 283 282 282 278 282 282 284 286 287 289 285 284 282 282 281 282 287 289 290 290 291 293 293 291 290 293 294 294 293 294 296 293 291 293 293 294 295 295 295 293 292 290 289 289 289
289 290 290 289 290 290 290 290 291 291 291 284 281 277 275 272 278 286 290 288 287 282 278 279 275 281 278 283 283 281 282 283 282 282 282 283 283 283 285 285 284 285 281 282 282 282 283 280 282 283 287 288 288 284 282 282 281 283 287 288 289 290 291 292 293 294 294 294 294 291 291 294 293 289 289 290 292 293 294 295 295 292 293 292 290 290 290
289 289 289 290 290 290 290 290 290 290 286 283 280 279 278 278 281 285 291 289 285 281 278 274 274 274 274 278 280 283 282 282 282 282 283 285 283 285 285 285 283 286 285 282 283 283 281 283 282 283 284 287 289 284 285 283 281 283 288 289 290 290 292 292 292 294 295 295 294 290 290 292 291 293 295 293 291 292 293 295 295 296 293 293 293 291 290
289 290 290 290 290 290 290 291 291 290 284 287 292 293 293 293 293 292 290 286 283 280 281 276 271 275 273 275 283 283 284 284 283 282 280 284 281 284 283 286 286 285 289 284 281 280 283 283 284 282 284 289 284 284 283 282 283 287 289 290 290 290 290 292 293 294 295 294 293 292 291 292 292 293 296 296 292 292 292 293 295 296 295 294 292 290 288
289 290 290 290 290 291 291 291 292 291 291 286 280 282 285 291 292 292 288 284 281 282 281 275 272 272 272 281 275 279 285 279 279 284 280 286 286 285 284 285 286 282 285 282 283 284 285 284 282 282 285 284 286 283 279 283 287 287 288 289 290 290 290 290 291 292 294 294 294 295 296 296 294 292 291 289 290 292 292 294 293 292 291 291 291 292 292
289 289 289 290 290 291 291 291 285 283 281 281 280 281 285 292 293 292 289 284 276 275 276 276 276 271 271 272 271 276 284 281 278 282 279 283 288 284 285 283 285 281 282 287 283 282 282 282 286 282 279 285 283 278 282 285 286 288 288 288 289 289 289 289 290 292 293 294 294 294 295 295 292 290 289 289 290 291 290 289 290 291 291 290 290 290 288
290 290 291 291 291 290 287 287 282 278 276 279 277 287 292 292 292 289 287 286 282 275 275 275 275 272 272 269 269 277 286 281 283 283 284 284 284 287 286 285 280 283 287 283 280 284 281 286 285 279 284 281 280 283 284 287 287 288 288 288 289 289 289 289 291 292 291 288 288 290 290 288 289 291 290 289 289 289 289 290 289 289 290 291 291 291 287
289 290 290 289 284 280 278 277 281 279 275 280 285 291 290 288 283 283 282 281 282 282 275 273 272 272 274 273 276 280 283 276 284 283 284 282 282 285 284 283 281 285 282 282 283 282 285 290 284 282 283 281 283 288 287 284 285 286 287 284 277 272 273 274 275 277 283 285 285 286 286 287 286 286 287 287 288 288 288 288 289 289 288 289 290 289 288
289 289 278 275 273 272 271 273 273 280 290 288 289 280 276 281 275 278 279 277 281 281 276 276 271 274 276 274 271 282 281 278 283 279 282 285 283 281 285 284 284 284 277 281 283 288 286 284 283 282 283 285 277 272 272 272 271 270 270 270 271 271 272 272 273 275 280 282 282 283 284 283 285 286 286 287 286 286 288 289 289 289 289 290 291 290 289
288 278 274 274 270 269 270 273 284 288 284 284 281 274 273 275 275 273 274 276 277 274 278 275 272 275 274 273 275 282 279 276 276 278 275 284 282 280 284 279 284 284 281 281 283 289 282 281 283 283 283 280 275 272 267 269 270 269 269 269 269 270 271 272 272 272 275 280 280 281 284 287 288 287 286 286 286 286 287 286 286 287 288 288 288 287 287
273 273 272 269 269 272 281 284 288 282 281 274 274 270 267 272 272 270 276 271 272 275 276 271 276 275 276 274 273 274 284 279 273 274 277 280 287 280 284 283 284 282 278 279 282 287 282 279 282 282 281 285 276 265 265 264 266 266 266 267 268 268 270 270 271 272 272 271 272 274 276 276 276 278 281 283 285 285 286 285 285 286 286 286 286 286 287
273 272 271 269 271 271 275 279 273 272 272 272 270 271 270 268 272 272 271 269 270 270 274 273 273 272 276 277 277 273 281 283 281 281 278 276 285 284 282 279 286 280 279 279 283 283 283 280 281 279 282 264 261 262 263 263 264 264 264 265 266 267 267 268 270 270 269 269 271 272 272 272 272 273 276 278 281 283 284 285 285 285 284 284 285 284 281
274 273 270 272 277 278 273 271 270 269 268 270 267 266 270 270 271 269 271 267 268 268 269 270 267 268 269 273 272 274 274 280 280 280 278 276 285 282 281 280 280 279 276 281 284 282 280 279 277 280 263 259 262 261 262 260 262 261 262 264 265 266 266 266 268 269 269 268 268 268 269 270 270 271 272 273 275 279 281 282 282 279 278 276 275 275 276
287 284 281 273 273 270 269 265 266 265 262 262 264 264 268 266 268 267 268 270 268 267 268 270 268 270 272 273 271 274 273 282 278 278 276 277 283 281 277 277 277 275 279 281 281 279 278 277 278 273 256 261 258 260 258 261 260 261 262 263 264 265 265 266 267 267 268 267 267 267 268 268 269 270 271 272 274 274 273 272 273 274 273 274 274 274 275
278 277 269 265 265 264 267 262 266 263 261 262 263 262 263 262 264 264 264 265 265 265 266 263 264 264 264 271 267 271 276 278 281 278 276 277 276 276 277 275 276 279 280 278 277 275 277 270 262 258 259 258 259 258 258 259 260 260 260 262 263 264 264 265 266 266 266 266 266 266 267 268 268 269 270 270 271 272 272 272 272 273 272 273 273 272 272
271 265 261 261 260 263 263 259 260 259 255 259 265 260 261 259 261 261 263 265 263 264 266 265 265 263 261 265 268 269 274 273 280 274 273 275 273 275 274 275 274 274 276 274 275 273 273 268 259 259 257 256 256 256 258 258 259 258 259 260 261 261 262 263 264 265 265 265 264 265 265 266 266 267 267 267 268 269 270 270 271 271 272 272 271 271 271
263 261 259 260 260 259 255 253 256 256 260 262 260 260 259 259 261 262 263 263 262 263 263 263 263 262 260 264 264 269 272 271 271 273 273 272 271 271 275 276 275 273 273 274 271 273 270 260 258 258 257 256 256 256 256 258 258 259 259 258 259 260 260 262 263 264 264 264 264 264 264 264 265 265 265 266 266 267 267 268 269 270 272 271 270 270 271
264 264 261 258 256 257 260 256 257 259 260 260 261 262 261 261 261 262 263 262 262 263 263 263 262 262 261 263 267 270 271 271 269 273 274 270 270 273 275 272 271 272 272 272 272 266 259 259 258 257 256 256 256 256 256 257 258 258 258 258 259 259 260 260 262 262 263 264 264 263 263 263 263 264 264 264 264 265 266 267 267 268 269 268 268 269 269
261 264 261 258 256 257 258 258 260 260 261 261 262 262 262 262 261 260 262 262 261 261 260 260 260 263 262 265 266 266 270 271 270 271 273 272 273 270 270 268 267 265 262 262 261 257 258 258 256 256 256 256 255 255 255 256 257 257 257 257 258 258 259 260 260 261 262 262 263 263 263 262 262 262 262 262 262 262 263 265 267 267 267 268 268 268 268
261 257 258 257 257 259 259 260 260 261 261 262 262 262 262 261 261 262 262 260 259 259 260 259 259 261 263 270 267 269 268 271 267 268 271 268 267 267 266 266 267 264 262 258 259 257 256 256 256 256 256 255 256 255 255 256 257 257 257 256 257 258 259 260 260 261 262 261 261 262 261 261 260 260 260 260 259 259 260 262 264 265 266 267 267 267 267
257 255 255 254 257 258 258 259 259 259 261 261 261 260 260 259 259 261 261 258 258 258 259 262 262 261 264 267 266 268 267 268 266 269 266 264 263 264 264 263 263 262 260 258 257 257 256 255 255 254 255 255 255 255 254 255 257 256 257 257 258 259 259 260 260 260 261 261 261 261 261 260 260 259 259 258 258 258 258 258 259 261 262 263 265 265 265
257 254 252 252 255 256 255 257 257 255 256 258 258 258 258 257 258 259 259 258 257 256 258 262 264 262 264 265 265 264 266 270 267 264 263 262 263 262 262 262 260 258 258 257 257 256 256 256 254 254 254 254 254 255 255 255 256 256 257 257 258 259 259 259 259 260 260 261 261 261 261 262 262 262 262 261 260 259 258 258 258 258 259 260 261 261 261
254 254 253 253 252 250 252 254 255 255 257 258 257 257 258 256 256 258 259 257 256 258 262 262 262 262 262 262 264 266 268 266 265 265 261 261 260 259 259 258 258 256 256 256 256 256 256 255 255 253 253 253 254 254 255 255 256 256 256 256 257 257 257 257 257 258 259 260 261 261 261 261 261 262 262 261 260 258 257 256 257 258 258 258 259 259 259
Wind_Speed
16 15 16 15 15 14 14 15 16 19 14 5 3 3 5 4 5 2 4 4 4 7 3 3 4 3 3 0 4 1 2 4 4 4 3 2 2 2 1 2 2 2 2 1 3 9 4 10 11 7 12 10 13 6 21 16 18 16 7 9 4 9 2 5 2 4 5 4 3 1 3 3 1 3 1 8 10 11 11 10 6 8 3 7 5 8 14
14 14 14 14 13 13 14 14 16 17 16 3 3 7 4 5 5 4 1 3 1 3 5 8 6 2 1 2 3 1 2 4 6 2 3 2 1 3 2 2 0 1 2 0 8 7 6 2 5 6 1 3 0 8 15 19 12 16 9 12 10 7 4 5 4 2 2 4 3 2 2 2 5 6 6 10 10 11 4 5 2 8 13 14 10 13 17
13 13 12 12 12 12 13 13 14 15 15 8 2 4 4 5 3 4 2 3 2 3 3 6 7 6 6 3 3 1 3 1 3 4 3 1 2 2 0 3 3 2 2 2 4 3 2 3 2 1 1 3 2 5 15 15 10 12 10 13 13 8 6 10 8 10 11 8 8 11 9 12 8 11 15 13 17 17 11 13 6 13 11 14 10 12 16
11 12 12 11 11 11 11 13 15 14 14 13 5 3 3 1 5 0 3 3 4 4 1 3 4 5 3 5 1 3 2 2 3 6 0 2 2 2 3 2 4 2 3 3 3 3 3 4 1 2 2 2 1 2 8 16 8 11 13 13 14 4 5 9 8 12 13 10 2 3 1 3 8 9 14 16 17 20 15 6 9 14 6 10 12 15 18
12 12 12 12 11 12 12 14 15 14 14 11 2 2 2 2 4 4 2 2 3 2 4 2 3 4 4 3 1 2 2 2 1 1 1 1 3 1 2 3 3 2 4 2 3 1 2 2 3 3 2 2 1 3 0 9 14 11 9 13 8 3 5 14 15 15 10 1 2 3 13 18 20 22 23 19 16 12 15 14 18 14 12 13 4 12 17
11 11 11 11 12 12 13 14 14 14 13 13 4 4 4 4 1 3 3 4 4 3 1 2 4 2 5 2 3 4 4 2 3 2 0 3 3 4 0 3 5 10 8 5 3 2 1 2 3 2 0 1 2 2 4 2 7 12 4 12 8 7 10 14 14 18 15 4 5 6 9 12 15 20 20 22 19 17 20 21 17 13 13 17 17 17 17
11 9 10 10 10 11 13 14 15 15 14 8 5 6 2 3 1 2 1 2 1 3 5 3 3 3 3 1 4 6 6 5 3 3 1 1 2 3 4 6 8 7 5 4 4 4 2 3 3 3 3 4 1 2 1 4 1 5 6 9 4 5 8 6 14 16 14 11 7 3 11 10 13 15 16 18 19 21 20 20 19 16 13 15 19 15 23
13 11 8 9 9 11 12 13 15 15 14 7 8 4 3 3 2 1 2 4 3 3 3 3 4 4 1 2 3 4 5 5 2 1 3 1 2 0 2 4 4 4 5 5 5 8 8 6 5 4 5 1 1 2 4 1 1 4 6 6 4 10 6 11 8 11 14 14 11 7 8 10 14 15 18 18 19 20 21 19 18 16 15 17 21 24 25
11 14 11 8 9 9 10 12 12 14 11 6 4 2 3 1 0 0 6 5 1 2 3 3 4 1 2 3 3 3 4 6 4 1 5 5 4 3 4 3 3 1 5 5 7 8 10 5 8 11 11 7 7 5 4 3 2 2 2 2 1 9 2 7 7 10 12 13 14 12 9 8 11 14 16 16 16 17 18 19 22 20 23 25 25 20 18
11 11 13 11 7 7 8 10 11 12 10 5 2 3 2 2 2 3 3 4 1 5 2 3 6 5 3 3 1 1 0 1 3 1 2 5 5 5 6 5 6 3 5 11 11 3 1 1 4 0 5 2 3 4 2 6 4 3 5 2 4 4 5 6 8 10 14 12 19 19 12 7 11 15 18 22 24 25 24 24 23 20 20 19 17 23 27
12 10 9 9 8 9 8 9 11 13 6 5 3 2 2 3 1 4 4 6 1 3 6 4 7 2 4 4 0 1 0 3 3 5 1 1 2 4 8 7 4 2 6 2 3 4 5 3 3 4 5 4 4 8 4 2 2 3 3 1 0 7 5 2 4 9 10 10 14 13 12 17 17 17 27 27 25 24 20 19 22 21 18 17 21 25 27
12 13 11 6 7 7 8 8 9 11 8 3 4 3 1 0 3 3 4 4 2 1 3 3 5 1 3 1 2 3 3 3 2 2 3 1 1 4 7 6 5 1 4 6 4 2 2 1 1 1 1 1 3 3 6 8 4 1 3 3 2 0 3 4 2 2 5 6 13 13 20 17 13 3 12 19 24 23 26 26 26 24 24 25 25 26 28
10 9 10 8 7 7 7 7 8 8 8 5 5 4 2 1 3 2 3 4 2 3 2 1 1 1 1 2 5 3 3 3 4 4 1 1 2 1 1 3 5 3 1 2 3 4 3 2 0 1 0 2 2 2 3 7 8 7 6 8 5 4 3 1 3 1 1 5 11 10 11 5 1 11 17 17 14 16 15 20 23 25 28 28 28 29 26
8 6 8 10 10 6 7 7 7 7 7 5 5 2 1 3 2 3 1 3 2 1 2 2 3 3 3 4 3 1 3 6 4 4 4 1 1 3 3 2 1 1 0 4 5 3 2 4 0 1 2 1 0 1 4 8 10 9 8 5 7 6 4 1 3 3 7 3 8 10 3 2 2 4 8 16 19 22 23 22 29 28 19 18 21 28 29
8 6 7 8 9 10 6 5 6 5 8 8 6 4 4 4 2 3 0 3 1 2 1 3 1 2 3 1 2 2 3 1 4 4 1 1 2 1 0 1 2 4 5 5 1 1 3 3 2 2 1 3 1 5 1 2 3 11 12 10 10 10 9 4 5 4 6 7 5 5 4 10 8 11 6 23 26 24 23 18 22 10 18 21 25 30 32
8 8 6 7 6 7 6 8 3 3 6 8 6 3 3 2 2 4 3 2 4 2 4 4 1 2 2 3 3 3 1 1 1 0 4 2 1 3 4 2 2 3 4 1 0 2 1 2 3 3 4 4 5 1 1 3 2 4 3 9 9 5 10 6 8 6 3 5 7 5 7 7 6 12 12 17 9 6 7 3 20 14 19 24 27 31 31
7 6 6 4 6 5 7 7 9 3 2 4 2 3 1 0 2 2 3 4 3 2 3 1 1 2 1 3 3 3 0 1 0 2 3 2 1 1 5 3 1 0 1 3 1 1 0 1 0 3 3 4 3 4 5 1 1 1 5 3 7 6 6 6 8 10 10 8 8 7 2 5 5 2 8 11 12 14 13 11 16 27 21 21 23 30 30
6 6 6 5 4 4 4 4 6 8 3 1 3 2 1 1 2 3 4 4 3 2 4 1 2 3 2 2 2 2 1 1 3 1 2 1 3 2 1 2 3 3 3 5 2 2 3 4 6 4 7 3 2 2 6 4 4 6 6 9 6 6 4 8 13 10 12 12 10 8 7 5 10 5 4 12 16 16 16 15 24 4 15 19 19 24 23
7 6 6 5 5 3 4 1 0 2 4 5 4 4 2 1 2 5 4 2 2 2 3 1 1 1 1 1 1 1 1 3 1 1 3 5 2 4 3 3 3 0 2 5 4 3 4 5 2 3 3 3 5 7 2 8 5 2 6 5 3 4 5 3 9 11 10 9 11 10 8 10 6 4 9 11 12 14 15 21 5 6 12 16 20 22 18
7 6 5 5 5 5 3 3 1 3 3 2 4 2 2 1 2 5 5 2 2 2 1 1 1 4 2 3 2 2 2 2 1 2 1 3 3 11 8 5 3 3 3 1 2 2 4 8 7 1 7 6 4 4 5 7 6 5 3 8 8 10 8 8 9 6 5 7 8 8 11 7 15 8 5 10 14 13 16 8 4 1 4 9 9 15 15
5 5 5 5 4 4 4 3 4 1 1 2 4 1 2 1 3 1 3 3 2 2 4 3 3 4 2 4 4 4 5 7 3 4 2 3 0 3 1 5 1 0 3 4 6 5 2 4 4 3 2 3 3 3 5 4 8 6 8 7 6 8 6 3 5 6 5 9 11 9 8 13 5 14 11 11 15 3 4 2 7 3 4 7 8 9 12
5 5 4 4 5 3 4 3 3 4 3 1 10 2 1 2 1 3 1 2 3 5 2 2 1 2 4 3 3 3 3 1 2 0 0 3 0 5 6 5 5 3 2 0 2 2 4 3 1 3 9 7 3 10 6 9 9 3 6 6 9 9 9 7 8 8 10 7 7 9 15 4 7 14 9 6 14 6 7 12 11 10 9 6 8 11 11
5 5 3 4 3 3 4 3 3 3 2 3 5 3 4 0 0 1 5 2 2 2 1 2 2 4 4 6 3 2 3 2 3 5 2 0 4 5 9 6 7 4 4 3 6 4 3 3 7 1 4 4 5 5 8 10 6 5 6 6 8 9 18 5 7 5 3 6 6 2 6 10 17 11 4 2 11 16 11 7 7 7 8 8 9 7 9
6 6 5 5 5 4 5 4 5 4 3 3 2 4 2 2 2 4 2 1 2 4 3 5 3 8 10 13 5 6 7 9 7 5 2 5 8 9 8 9 5 3 8 12 8 7 5 3 3 3 8 3 4 8 9 8 11 7 6 6 3 4 4 8 11 3 8 10 6 15 17 16 20 18 5 3 7 10 10 9 9 6 5 5 6 5 6
6 6 6 6 6 5 5 5 5 6 5 5 1 3 3 1 2 5 5 3 2 4 7 2 11 14 9 3 4 5 11 11 7 9 10 11 14 14 16 12 3 6 11 9 5 9 7 10 8 6 11 4 6 10 7 11 11 7 12 8 4 7 6 9 11 11 15 11 10 17 21 23 19 14 7 9 15 16 10 8 6 4 4 5 8 6 8
7 7 7 7 7 7 7 7 6 6 5 6 2 2 2 4 3 5 2 2 0 1 5 9 9 2 3 3 5 10 7 7 10 13 14 16 17 19 20 10 5 7 10 6 6 9 9 8 7 7 8 7 7 10 11 11 13 9 13 12 11 5 8 10 6 12 13 11 17 13 12 13 15 18 18 18 11 4 5 4 5 5 6 7 6 5 9
7 8 8 8 7 7 8 9 8 8 8 7 3 3 3 2 5 8 6 5 1 6 7 12 7 1 2 8 7 5 7 8 8 10 13 15 18 18 16 14 13 12 12 10 6 7 7 9 10 14 11 11 5 8 7 8 9 11 12 9 4 5 12 3 7 15 12 13 15 10 11 16 19 25 25 14 6 6 6 6 6 8 10 9 8 10 7
9 8 9 9 9 8 9 10 10 10 9 9 3 3 3 4 6 8 8 8 10 9 3 4 2 4 3 8 5 6 6 6 11 13 14 16 17 17 17 16 13 11 11 11 12 11 12 14 16 11 10 7 9 12 11 11 7 11 13 11 8 13 12 10 14 12 14 15 20 21 18 22 24 9 2 12 13 12 15 15 14 12 11 10 8 9 10
11 10 9 10 10 10 10 10 11 12 11 6 3 1 1 6 6 8 10 8 6 6 6 9 7 7 9 6 4 4 9 13 12 12 13 14 15 16 17 18 16 13 12 11 10 10 11 14 11 11 11 8 7 9 6 15 14 17 13 12 17 15 14 20 20 18 19 18 24 22 15 18 21 13 5 8 11 13 16 18 15 13 13 11 10 11 12
12 12 11 10 11 12 12 11 12 12 11 2 3 0 2 4 5 8 10 10 8 4 5 4 7 6 2 4 7 9 11 11 15 18 19 18 18 17 17 17 16 14 11 11 11 14 13 11 12 11 10 4 10 9 12 12 14 16 14 18 19 17 18 19 18 20 18 17 22 20 16 19 22 11 9 9 9 13 15 18 19 16 13 9 10 12 10
12 12 12 12 12 13 13 13 13 13 12 1 1 1 1 3 5 4 11 9 9 6 3 3 9 5 9 9 10 14 14 12 12 15 20 20 19 19 17 14 14 13 12 13 13 17 12 14 11 15 13 16 11 10 14 12 16 14 15 19 19 20 20 20 19 19 21 24 22 8 6 16 12 2 6 7 11 13 14 13 15 14 15 12 12 14 12
13 14 14 14 14 14 14 15 15 13 6 5 6 4 4 5 3 2 6 5 5 1 2 3 4 3 6 4 4 6 11 15 15 11 11 11 15 15 16 15 14 15 14 14 13 10 13 14 15 15 14 15 14 12 13 15 17 18 17 20 18 16 16 18 18 20 20 23 17 8 10 12 8 14 15 11 12 12 15 16 16 16 18 17 16 13 13
15 15 15 15 15 15 15 16 17 12 5 8 13 16 15 17 8 11 8 7 3 2 2 3 5 3 4 3 3 3 3 3 6 8 12 11 13 11 13 14 15 12 14 14 10 10 11 14 12 16 18 9 10 10 14 18 21 23 25 21 15 14 14 15 16 18 21 18 13 19 16 14 13 14 18 14 11 13 13 15 16 16 15 14 14 11 9
16 16 17 16 16 16 16 16 16 17 14 8 6 6 7 15 16 12 8 5 1 2 3 4 5 6 7 1 9 4 6 8 9 7 10 8 9 10 12 10 12 10 11 17 14 8 4 7 14 15 11 12 11 11 17 21 26 29 27 25 20 17 15 14 15 18 20 19 15 17 20 19 11 8 7 5 8 12 14 14 11 11 13 14 15 17 16
16 17 16 16 16 15 15 13 5 2 5 6 6 4 4 14 17 15 13 6 4 4 3 4 2 8 8 4 10 7 5 7 11 9 12 8 10 12 9 10 9 13 12 11 9 12 13 13 9 11 17 11 11 14 14 21 27 26 25 24 22 18 15 18 21 21 19 16 16 17 19 18 12 7 8 10 11 11 10 9 9 12 14 13 15 15 11
14 14 15 14 14 10 5 6 4 3 3 6 5 5 12 17 17 11 15 13 7 3 4 5 3 8 6 11 11 4 4 11 13 7 8 1 4 6 6 8 11 11 3 8 13 12 14 12 8 16 12 13 17 16 22 22 20 17 16 17 18 17 16 18 20 20 17 11 11 13 15 9 11 14 10 10 10 9 10 11 11 9 13 17 17 15 9
13 12 14 15 6 2 3 4 2 5 5 6 6 5 2 10 7 5 3 1 3 1 3 1 8 9 8 10 3 3 2 11 1 7 5 7 9 4 7 7 11 4 5 7 10 15 12 8 11 13 11 15 21 20 15 10 14 17 14 8 3 1 4 6 8 8 10 11 11 11 10 9 7 6 6 7 9 8 8 10 13 13 15 17 14 10 11
9 7 1 2 2 0 1 3 3 2 5 4 5 3 1 1 2 1 2 4 3 4 3 4 10 8 4 8 15 2 2 9 4 7 5 3 4 5 4 6 7 6 9 10 10 6 5 6 8 13 15 12 2 5 3 3 2 2 2 4 3 3 4 5 7 7 7 8 7 6 6 6 7 8 9 10 9 8 10 11 10 8 10 12 15 13 10
5 1 1 0 1 2 2 2 1 4 3 1 1 1 1 0 2 3 4 3 2 7 6 7 12 10 12 13 15 6 8 9 10 8 11 3 5 5 4 10 4 6 6 4 6 11 9 7 7 7 14 7 7 2 4 4 3 3 4 4 5 5 5 5 4 5 6 4 5 5 5 11 14 12 7 7 5 5 6 5 3 6 8 8 7 5 5
1 0 2 1 2 4 1 2 5 3 2 1 0 2 1 2 4 4 3 4 3 4 4 8 6 8 12 16 15 12 6 10 13 11 10 10 3 6 1 3 2 4 7 9 5 7 8 7 6 6 13 11 6 5 5 6 4 5 6 7 7 7 7 6 6 6 7 9 7 9 7 6 3 3 3 3 3 5 6 4 4 4 5 7 5 6 9
0 0 1 2 5 1 1 1 1 1 1 1 1 1 1 2 3 1 2 4 4 2 0 2 2 2 2 3 7 8 1 1 4 2 2 7 2 3 4 5 1 4 4 7 3 5 3 3 5 11 12 4 5 6 7 6 6 7 6 7 8 7 8 9 8 7 6 7 7 7 6 6 6 4 3 3 3 5 6 4 4 4 5 6 7 6 2
3 3 2 1 0 1 2 1 1 1 0 0 2 2 4 2 1 1 2 4 3 1 3 2 3 1 4 2 3 3 4 4 3 3 4 7 5 6 3 2 1 5 4 1 6 3 4 8 7 10 4 4 6 7 8 8 7 9 10 9 9 9 9 9 9 6 3 6 6 7 7 6 7 5 3 2 3 4 4 3 4 3 3 3 2 1 3
10 8 1 0 0 1 0 0 1 1 1 1 1 2 2 3 2 2 2 1 1 0 1 1 0 4 6 2 6 7 6 2 3 4 4 5 2 1 3 2 2 4 2 3 3 3 7 9 10 4 4 4 7 8 8 8 9 9 9 8 8 8 9 9 8 7 5 4 6 7 7 7 7 6 4 3 2 1 3 4 3 1 1 0 1 0 1
3 1 1 0 1 1 1 1 1 2 1 0 1 4 1 1 2 3 1 1 2 1 2 3 5 7 5 3 4 4 3 5 6 4 5 2 2 3 2 4 4 1 3 1 2 5 6 0 3 2 4 5 5 8 9 9 10 10 10 9 9 9 9 8 7 6 6 5 5 6 6 6 6 5 3 4 5 4 3 5 5 4 3 3 3 2 1
2 1 1 1 1 1 1 2 2 1 3 2 1 2 1 3 1 1 3 1 1 3 3 2 2 2 7 7 4 6 5 4 1 2 3 1 3 2 3 3 3 1 2 3 2 1 2 3 3 3 7 9 8 8 8 8 8 9 10 11 9 11 10 10 8 7 6 6 6 6 6 7 6 5 6 6 5 5 5 5 3 4 4 4 4 3 2
1 2 2 3 2 1 1 1 0 0 1 0 1 1 1 2 1 4 1 2 2 5 6 4 4 4 8 5 3 3 0 1 2 3 1 0 2 3 1 1 1 2 1 2 4 8 2 2 5 5 6 7 8 7 7 7 8 7 8 8 10 11 10 10 8 7 7 6 6 5 6 6 6 6 5 6 6 7 7 6 5 4 4 6 5 3 2
2 1 2 1 2 1 1 1 1 1 1 1 1 0 2 3 3 4 4 1 4 4 5 4 5 7 5 3 3 4 4 2 3 2 1 2 3 2 2 1 3 2 3 6 6 1 3 3 3 6 6 7 9 8 8 8 7 7 7 7 8 9 10 9 9 8 8 7 6 6 6 6 6 6 5 8 9 8 8 8 8 7 6 6 5 4 5
1 0 1 2 2 1 1 1 1 0 0 1 1 1 2 1 2 3 0 0 1 3 5 5 4 2 4 5 2 5 4 2 2 3 1 2 2 2 1 1 3 1 1 2 2 1 4 4 5 7 7 7 7 8 8 9 9 9 8 8 8 9 9 9 8 8 8 7 6 5 5 6 6 6 7 7 7 9 10 8 7 7 7 7 7 7 8
2 1 1 1 1 0 0 1 1 1 2 2 1 0 1 3 5 6 2 2 3 4 3 3 3 3 4 4 4 3 3 1 2 2 1 1 1 2 1 3 1 3 1 1 2 2 3 5 6 7 7 8 7 8 8 8 8 8 9 9 9 8 7 7 7 7 7 7 7 6 7 7 6 6 8 10 11 9 10 10 10 9 7 6 7 8 9
3 2 4 3 2 1 2 1 2 1 2 1 1 2 0 2 5 4 2 5 2 5 5 5 4 3 4 3 2 2 2 0 1 2 1 1 1 3 2 4 1 1 1 2 2 3 4 4 5 6 7 9 9 9 9 10 10 9 9 8 8 8 8 7 8 8 8 8 9 9 9 8 7 7 9 9 7 7 10 13 13 12 11 9 7 9 10
1 4 2 2 0 1 1 2 3 2 2 3 2 3 0 3 2 3 2 3 6 4 2 1 2 2 2 1 1 2 1 1 1 1 1 0 2 2 2 3 2 2 2 2 2 3 4 4 4 5 7 7 8 10 9 9 10 10 10 10 10 9 9 10 9 9 10 11 10 9 8 8 5 5 7 8 10 14 15 14 14 13 15 13 12 12 13
2 2 0 1 0 1 0 0 0 4 5 5 3 3 1 3 2 3 2 3 3 0 1 2 1 1 1 2 1 1 2 0 1 1 2 1 2 1 2 2 2 2 3 4 4 4 4 4 4 6 6 7 8 10 10 10 8 8 11 11 11 11 11 11 11 10 11 12 13 11 11 10 10 9 9 12 12 14 13 9 8 9 12 11 10 13 12
Wind_Direction
55 55 61 64 61 51 43 40 34 32 22 57 334 24 48 46 78 45 68 93 52 153 84 82 90 118 204 167 64 62 74 130 177 126 191 158 181 95 92 207 83 291 122 155 133 167 190 186 198 179 207 216 214 175 182 158 162 167 188 181 181 72 114 153 296 340 319 306 304 350 358 166 249 322 61 169 184 179 188 195 176 191 159 230 252 248 266
56 54 53 55 55 48 40 36 36 32 38 64 22 71 73 73 96 67 59 122 172 151 155 151 152 158 104 101 162 122 154 133 152 126 193 127 127 137 160 35 324 180 312 118 174 179 175 250 186 211 257 231 214 166 187 168 172 169 183 175 165 183 202 156 150 162 342 332 315 257 336 163 207 186 196 190 184 195 188 87 108 195 204 210 185 236 256
57 57 56 54 48 41 35 31 34 31 28 35 111 98 133 107 49 56 2 356 34 92 10 129 141 164 152 139 102 66 37 80 136 135 173 114 144 92 11 180 147 92 132 41 44 36 137 130 204 133 269 211 14 172 182 190 183 187 175 164 158 184 152 162 187 184 188 199 201 189 174 200 190 200 192 194 185 187 173 203 169 213 207 197 206 238 242
53 60 59 54 48 40 32 30 34 27 26 18 63 94 70 113 112 182 28 344 27 32 26 71 128 132 109 79 216 90 78 10 48 100 62 140 120 114 126 26 97 106 78 49 32 33 4 107 206 116 252 272 341 290 189 190 194 195 136 141 149 164 151 192 204 205 210 213 221 323 85 110 184 180 196 200 202 195 195 188 204 217 200 206 216 229 260
51 54 57 57 52 41 32 31 30 25 18 15 106 50 111 111 91 157 146 15 26 87 15 39 62 158 143 114 146 87 148 180 57 110 109 221 136 102 121 176 118 202 92 162 108 176 94 17 79 205 199 273 277 331 224 191 200 143 133 157 130 96 180 202 206 228 237 52 218 189 158 183 191 187 200 198 193 187 191 192 214 197 211 241 197 233 241
49 49 54 56 53 45 38 32 32 22 19 1 79 56 21 87 127 95 177 126 212 72 340 56 80 39 119 159 114 159 161 134 159 26 189 171 164 125 281 153 181 174 174 147 128 180 120 127 155 183 46 9 304 360 299 247 185 144 162 170 149 148 203 202 195 224 228 253 289 173 176 204 203 201 195 194 191 187 197 211 217 196 208 224 221 217 236
30 43 42 44 43 46 42 37 29 24 16 20 81 85 332 114 115 75 63 76 133 145 184 139 100 65 130 94 142 170 174 174 188 151 182 81 223 126 178 204 201 179 166 124 135 160 102 267 212 154 180 171 191 225 294 236 197 161 151 182 154 126 228 190 194 222 224 226 248 266 189 202 208 209 206 200 193 198 202 212 217 211 219 230 242 232 234
28 25 44 38 41 36 41 40 33 18 9 38 63 52 95 8 60 134 55 62 107 120 103 143 97 122 183 130 234 154 172 188 207 45 117 127 257 53 170 197 188 162 166 153 151 198 195 174 173 204 126 247 135 205 182 206 138 181 196 163 221 157 209 172 184 218 223 219 227 266 250 199 209 209 207 200 198 201 206 212 219 219 233 237 239 240 242
26 24 27 42 39 35 39 46 36 23 17 43 57 21 47 148 175 144 113 79 69 67 101 107 122 77 316 147 265 139 176 187 172 194 158 154 187 171 205 118 146 118 161 202 218 207 204 179 188 170 165 192 203 160 269 140 139 158 204 159 234 182 258 145 168 205 228 208 208 223 250 237 217 210 203 198 194 204 207 214 213 204 214 221 234 245 255
25 24 17 18 39 37 44 45 45 31 26 90 62 59 331 36 309 87 96 86 122 145 151 105 102 214 209 137 268 87 19 166 138 245 248 200 182 161 156 170 139 217 181 217 224 240 338 351 16 126 228 12 112 181 201 165 148 179 211 197 169 171 155 176 169 207 229 203 195 203 207 228 229 212 200 196 200 203 206 215 216 214 211 219 220 232 234
31 16 15 13 34 44 42 47 51 42 48 59 78 52 20 68 7 7 40 104 350 93 133 183 161 211 127 167 143 53 147 191 160 155 281 149 268 145 147 165 149 207 216 230 139 145 183 194 189 163 189 196 163 191 182 206 159 138 177 123 108 154 166 181 186 213 230 196 185 194 198 210 215 201 199 194 197 202 206 215 218 217 208 221 220 230 238
39 30 18 27 43 49 49 52 53 55 57 64 109 82 299 16 74 67 80 103 199 159 139 180 152 353 84 44 132 156 184 202 237 163 212 239 229 167 157 174 157 91 251 191 187 133 96 63 99 106 76 167 201 201 177 177 208 163 157 150 118 134 181 201 156 223 242 140 162 198 217 220 229 212 188 195 202 198 205 214 215 213 213 225 234 239 246
40 34 16 34 48 57 60 58 62 58 57 56 79 95 322 55 114 103 125 110 196 191 136 262 335 125 140 49 48 22 8 311 348 352 350 320 322 21 201 154 156 221 190 108 103 88 114 190 119 199 250 36 40 43 194 207 209 186 184 167 154 151 178 190 227 193 300 198 179 215 228 209 284 139 174 194 196 209 212 237 233 219 213 214 227 237 243
46 29 3 19 22 36 60 73 69 61 60 69 83 92 28 45 81 49 73 102 261 78 128 351 325 341 48 67 103 330 347 350 347 33 11 9 316 275 305 54 175 234 231 103 89 99 19 36 32 42 318 18 328 309 247 220 212 189 181 180 169 162 116 185 305 190 235 163 214 225 12 32 189 165 185 157 192 199 194 214 230 218 213 214 231 241 241
38 40 19 10 16 7 30 47 67 73 72 74 87 66 56 31 87 128 62 83 86 343 59 170 276 143 114 109 97 53 37 312 25 311 248 261 272 209 204 279 330 5 22 20 350 65 166 115 67 75 307 103 144 249 221 258 239 206 193 182 173 164 198 158 219 239 204 251 236 228 231 223 211 222 182 192 199 197 198 207 249 202 207 211 221 235 240
23 32 23 32 1 343 353 14 35 63 79 75 69 89 62 105 69 78 100 129 104 20 286 188 157 76 81 92 89 108 154 70 257 336 336 294 252 359 309 264 285 1 21 61 167 114 130 130 205 151 192 189 217 215 303 258 288 321 245 199 177 185 177 174 180 262 315 232 241 248 232 239 221 211 192 205 198 139 92 178 254 222 196 208 217 231 237
20 25 30 29 39 12 349 355 359 348 114 65 87 69 33 56 84 108 74 29 81 193 337 348 112 113 56 346 25 9 99 210 154 344 313 338 6 59 330 310 303 110 97 34 329 340 70 160 128 162 247 165 148 210 222 169 231 8 359 85 167 142 161 155 204 225 242 271 273 261 193 267 267 195 192 192 118 123 120 201 244 237 194 207 211 228 234
20 17 18 18 28 29 37 15 337 351 359 137 88 99 2 54 101 86 58 93 98 316 280 285 38 58 140 185 146 240 61 18 19 357 258 248 18 315 276 2 347 300 164 183 156 182 211 195 207 188 229 216 199 183 231 194 201 180 176 167 167 187 187 193 212 213 232 227 255 275 272 262 249 230 224 141 145 138 177 203 233 259 157 207 209 230 233
21 21 14 23 16 10 32 91 29 296 8 4 48 37 349 128 86 86 116 84 101 207 269 311 159 184 214 77 127 153 156 130 117 55 290 21 322 297 192 219 177 261 177 189 156 191 197 238 178 180 222 247 180 223 203 229 224 176 142 123 50 199 182 204 198 217 219 222 230 243 273 246 225 211 149 163 139 197 194 221 227 109 169 186 202 219 224
11 15 21 9 17 19 7 11 9 23 307 50 97 147 242 190 164 134 121 146 141 198 268 260 132 221 257 211 179 217 317 339 188 137 134 200 344 7 18 356 311 163 289 105 237 208 196 230 210 179 226 213 216 206 247 244 244 208 178 187 189 179 177 186 187 196 213 209 222 229 241 256 187 159 155 191 184 204 217 229 336 289 181 190 202 211 219
347 356 12 9 10 13 10 7 13 341 228 216 102 58 338 313 154 144 123 124 118 258 280 216 201 215 204 220 195 184 161 206 164 226 193 202 165 53 174 197 272 81 206 158 202 212 193 246 206 210 237 191 200 191 220 242 248 230 180 204 216 169 198 183 202 179 186 196 207 221 218 261 127 159 191 200 208 207 220 15 254 294 160 155 201 221 216
317 332 342 358 353 360 357 4 5 5 350 300 119 93 192 282 148 155 124 124 198 206 194 234 209 233 239 227 210 193 199 194 239 242 342 301 214 214 263 319 303 305 290 231 198 250 205 230 158 190 224 225 174 220 199 230 239 247 217 156 245 167 210 171 220 179 202 201 214 221 234 241 200 212 236 185 217 243 206 220 220 224 239 207 188 210 213
308 297 310 305 321 344 325 335 344 331 11 302 126 124 185 170 352 84 106 251 267 275 45 288 298 266 263 255 197 199 213 199 247 267 215 138 296 275 260 259 252 220 260 294 271 255 223 193 243 244 271 222 218 253 240 233 253 226 241 215 232 186 203 192 231 238 277 261 233 271 272 251 254 245 250 237 214 230 239 234 243 248 234 185 202 209 206
296 296 294 292 297 314 312 310 309 313 316 333 134 115 189 177 179 71 31 264 243 292 274 189 199 247 222 240 190 220 237 239 218 222 159 163 239 254 249 235 237 233 241 251 266 282 310 302 258 225 252 210 169 228 242 252 232 238 245 256 234 265 220 203 220 167 201 237 201 242 244 242 247 248 231 246 251 254 256 255 243 245 247 256 271 250 242
291 291 286 279 276 278 287 292 294 292 293 289 350 137 134 86 112 143 132 206 214 194 257 252 217 238 251 232 142 210 217 222 218 225 222 222 223 233 238 227 175 235 253 254 284 283 271 273 277 264 256 223 170 244 207 240 253 173 244 229 232 262 181 224 212 208 214 234 216 221 233 238 246 245 222 231 241 246 248 254 280 282 268 227 233 221 248
290 292 292 289 281 273 270 274 281 275 280 281 278 124 172 206 182 157 154 214 252 136 246 247 265 241 190 221 228 227 219 183 202 216 220 223 229 234 248 262 269 251 260 248 233 244 261 260 260 257 256 267 182 237 234 214 245 226 228 233 216 208 162 223 174 227 232 239 244 240 258 268 257 251 238 231 216 218 277 260 269 279 291 275 262 202 233
287 285 291 292 288 282 276 269 270 272 275 279 246 161 166 221 167 170 168 169 138 265 221 255 251 163 149 220 229 242 240 225 212 217 227 227 233 239 242 243 241 246 251 264 242 250 240 247 242 249 234 244 226 237 248 245 232 246 245 237 185 189 226 181 188 234 224 223 235 227 240 253 248 240 244 228 179 202 234 244 248 245 245 247 254 267 244
272 280 282 287 288 288 282 275 271 273 271 267 262 215 187 182 202 193 194 177 194 234 278 275 259 217 214 255 228 218 233 224 222 224 226 228 231 236 240 242 235 239 236 232 240 227 233 237 235 234 245 247 246 248 237 258 261 249 243 229 187 221 217 205 227 227 234 223 233 230 223 242 246 255 180 186 196 208 229 236 238 239 234 226 216 236 263
267 272 277 277 283 284 284 280 277 275 276 282 90 57 295 232 211 199 200 204 201 233 254 269 289 284 261 255 105 183 220 226 234 235 236 234 229 231 233 234 231 228 231 231 243 245 237 241 242 233 231 203 233 248 229 239 231 241 231 221 221 224 218 225 229 235 240 231 236 232 220 236 252 237 194 193 192 196 219 233 237 236 234 231 222 224 225
263 268 272 275 275 279 279 281 277 273 271 76 68 26 328 292 216 200 203 185 178 184 230 251 252 250 235 242 243 220 235 214 223 229 236 240 237 234 233 231 233 225 222 220 214 234 229 239 242 246 248 168 234 238 242 238 242 240 230 234 234 233 230 235 231 231 239 237 243 240 227 235 247 234 198 202 194 191 210 224 228 233 239 232 226 240 238
263 262 264 266 270 271 274 275 276 272 268 206 97 136 192 273 267 216 198 189 179 157 216 228 255 314 292 260 267 255 245 232 218 222 227 230 235 235 235 229 231 214 221 219 219 227 222 229 224 235 231 226 232 238 241 242 245 245 231 233 233 233 232 232 233 234 236 242 244 235 212 238 246 190 237 210 211 205 213 226 230 228 232 231 229 229 239
268 266 265 265 265 267 268 270 269 269 245 183 214 194 172 187 210 139 161 163 108 101 201 269 282 252 263 274 233 232 232 230 228 227 229 214 232 224 230 212 227 210 211 221 221 227 225 230 233 235 233 215 219 244 244 247 248 245 240 236 233 236 236 236 235 237 237 242 239 238 235 240 209 210 236 217 213 207 208 219 222 224 225 226 230 226 226
263 265 266 265 264 265 266 265 265 260 223 223 233 246 253 257 158 141 136 105 101 191 183 225 226 269 254 247 309 243 187 230 223 212 240 208 230 213 227 213 220 222 203 217 207 223 212 216 218 236 233 207 221 228 237 239 241 245 244 247 245 243 244 244 240 237 237 233 202 228 232 227 228 222 233 228 200 210 214 222 224 224 231 234 239 240 240
262 263 264 264 265 266 266 266 265 268 273 265 258 245 234 237 243 191 146 121 150 222 196 214 241 223 249 65 276 240 131 255 258 185 242 198 203 196 217 203 199 210 186 207 213 227 205 196 217 231 229 216 222 235 238 237 240 243 245 245 244 246 248 255 251 245 238 232 218 225 230 231 221 222 236 231 216 219 217 221 220 225 235 237 240 240 241
265 263 263 264 262 262 263 266 278 240 237 235 248 248 227 223 219 194 165 167 168 227 198 234 225 270 269 256 250 261 161 221 250 223 237 236 155 200 202 213 183 207 200 186 212 210 216 218 195 218 226 209 208 224 233 234 233 234 239 242 240 241 244 245 247 243 240 231 225 224 228 232 227 212 207 214 219 221 221 232 226 216 228 233 231 236 230
276 272 269 266 263 262 271 266 226 212 218 226 222 229 228 231 223 202 182 186 192 177 209 231 211 231 223 257 264 275 144 233 237 241 225 242 207 203 193 196 217 206 131 155 208 196 220 196 174 224 214 211 218 218 227 226 232 234 235 238 235 226 232 234 238 234 234 236 230 232 232 221 215 226 217 213 213 219 214 221 229 220 226 233 232 233 222
277 279 277 270 263 113 215 220 201 176 210 196 200 205 133 79 30 64 41 39 311 85 210 209 238 235 229 266 302 263 354 276 142 250 211 211 223 173 180 198 214 140 176 194 201 211 214 161 204 221 211 212 223 222 233 239 231 232 232 232 198 51 308 322 331 322 257 221 211 217 214 211 223 229 222 218 219 216 215 220 221 217 224 233 240 241 229
292 277 127 72 57 160 253 242 209 223 204 160 154 95 342 79 105 116 201 229 194 166 227 208 246 246 236 245 249 167 314 262 293 282 276 236 246 213 189 202 210 153 204 202 214 136 112 170 207 216 227 226 318 65 60 66 74 28 352 342 335 357 333 316 325 310 258 220 222 232 248 245 234 222 203 225 218 215 216 223 227 229 230 231 230 228 227
336 65 65 113 122 208 215 222 183 81 109 124 47 97 217 147 143 219 197 184 181 213 194 210 236 223 230 237 253 213 229 280 281 265 273 242 260 247 168 202 183 183 214 201 219 152 196 198 210 210 231 193 196 162 24 11 23 34 8 353 335 322 330 312 311 293 279 274 317 310 253 223 217 226 211 221 227 231 242 249 238 241 246 258 268 277 253
56 137 187 164 206 227 338 350 32 82 145 93 274 120 192 189 178 227 141 202 212 210 171 232 216 227 215 229 244 257 188 222 242 254 255 262 192 260 205 231 163 176 208 214 188 146 203 201 209 209 239 210 179 43 360 12 336 1 349 341 335 329 321 312 301 293 294 287 278 274 288 296 305 271 262 260 261 258 252 237 221 246 257 251 245 241 238
259 107 57 212 241 235 256 243 30 64 92 122 64 253 200 239 219 222 172 227 221 219 53 278 330 290 226 233 232 252 94 344 276 276 249 253 217 272 237 218 128 191 212 208 121 169 158 241 200 217 227 40 13 349 347 346 351 337 335 329 332 327 324 315 311 312 316 305 304 299 305 314 301 279 267 264 257 256 267 272 265 240 244 247 235 224 209
181 169 194 194 200 289 5 23 121 100 351 162 155 220 195 236 112 318 196 214 219 349 310 37 303 340 283 334 289 353 289 206 234 235 245 259 203 208 229 240 263 226 219 182 129 162 136 212 219 224 66 332 29 354 357 338 346 337 328 329 330 328 324 316 315 320 318 306 305 305 307 309 299 292 278 260 262 266 274 274 261 249 241 280 317 238 158
268 269 190 273 4 289 134 357 286 122 160 207 140 243 185 216 190 176 206 95 33 233 306 60 3 321 263 215 261 201 228 285 262 232 229 252 339 308 237 231 170 220 208 54 135 118 202 211 225 184 354 348 5 357 351 332 333 318 320 317 324 327 318 316 317 319 329 329 318 318 313 304 293 290 291 276 250 133 55 53 32 35 44 34 311 300 194
143 137 60 355 87 287 95 236 271 53 320 118 180 206 149 262 285 22 287 272 360 341 53 28 352 33 313 18 350 302 249 224 215 238 247 252 292 267 242 227 210 279 39 69 110 203 219 53 27 5 338 1 339 357 335 342 324 333 320 331 324 333 329 328 330 334 333 343 341 328 317 309 300 306 334 20 35 68 70 55 39 47 47 69 65 33 4
119 15 49 28 40 274 74 257 349 124 212 237 164 210 168 193 227 152 244 357 121 269 9 357 331 337 271 294 277 241 241 279 8 231 253 56 268 234 235 294 340 347 173 197 227 6 296 220 57 350 4 344 351 334 346 326 340 327 324 317 334 337 343 341 343 341 338 344 338 336 333 332 329 347 10 15 19 35 61 61 32 56 59 79 74 62 13
94 163 117 125 218 298 122 196 3 20 291 171 222 177 220 247 205 259 342 44 285 316 318 321 324 288 275 247 246 288 325 292 283 235 237 291 258 270 239 294 309 299 271 209 199 222 199 34 338 358 351 337 329 331 321 328 328 328 339 338 334 336 338 338 342 347 348 344 343 348 340 346 343 351 356 13 23 31 37 31 35 56 88 90 81 86 73
60 5 94 108 96 269 79 142 235 202 173 214 258 177 206 251 244 263 275 269 262 296 307 295 259 245 250 265 233 241 218 200 251 270 74 240 236 289 23 62 260 241 221 216 221 356 332 339 358 338 341 341 328 332 333 333 336 345 340 337 334 338 338 343 345 354 347 355 355 8 1 354 348 349 9 36 25 17 26 33 41 46 74 93 92 88 85
124 241 85 112 229 187 100 251 154 84 333 183 204 209 230 274 323 286 198 104 320 345 307 318 315 221 233 219 226 269 278 194 271 270 178 280 1 333 297 319 242 106 47 319 340 24 287 355 333 334 329 340 333 332 331 333 337 347 350 344 344 340 341 343 353 352 360 355 2 6 22 14 5 11 19 26 34 20 10 15 36 55 73 84 92 95 99
118 92 105 174 174 113 84 349 78 257 212 224 195 217 311 306 271 281 332 27 335 283 295 260 274 325 277 186 189 238 251 177 210 256 48 7 224 256 204 250 271 279 73 82 333 360 316 318 321 314 327 336 339 341 334 330 336 344 347 348 339 332 333 350 356 3 12 18 8 12 29 26 18 15 29 38 36 16 10 20 33 43 43 68 95 100 100
59 12 18 52 66 343 307 322 72 238 191 179 61 308 277 283 280 284 45 338 305 308 285 222 221 251 272 317 273 210 242 67 188 332 54 305 3 321 329 260 251 295 20 5 317 320 339 320 323 317 327 331 336 343 338 331 345 349 342 340 339 351 2 4 9 12 21 36 45 52 49 47 37 40 48 52 47 43 37 35 34 37 36 29 53 80 85
32 110 160 222 147 225 57 174 202 233 302 281 305 283 303 275 242 288 40 347 322 301 195 206 185 212 277 258 261 252 289 38 36 47 128 35 9 297 268 284 357 12 1 26 320 340 327 333 334 316 324 328 334 338 336 328 333 348 343 348 358 16 21 21 22 28 31 35 32 29 27 36 39 54 73 76 72 69 58 40 29 27 38 44 49 65 76
45 49 3 250 126 137 157 254 3 221 235 268 292 254 26 281 280 298 15 355 312 284 348 22 13 263 282 248 267 313 333 61 223 71 52 59 32 284 303 321 332 358 331 322 334 339 334 333 337 331 323 325 331 331 328 325 338 355 357 354 354 7 19 22 23 28 39 39 34 40 46 46 53 61 74 76 73 67 57 44 22 26 26 38 47 50 57